Theta_e
309 309 315 327 335 335 333 336 335 335 335 333 331 332 332 332 328 326 327 328 327 326 329 330 330 331 331 331 331 328 327 325 323 321 321 322 322 322 321 321 321 321 323
310 310 309 319 322 329 336 334 335 334 334 334 331 332 332 331 329 326 326 326 328 329 329 329 329 330 331 331 331 329 328 328 324 320 318 319 322 321 321 321 320 321 320
309 309 309 310 314 320 323 336 335 335 335 334 333 331 332 331 330 326 326 327 330 328 328 329 329 329 330 330 331 330 329 328 325 322 322 319 319 319 320 320 318 320 320
308 308 308 309 311 319 327 330 335 336 335 333 333 331 331 331 330 326 327 328 330 331 330 328 328 328 329 329 329 329 329 328 327 325 325 322 320 319 319 320 319 318 319
306 307 307 307 309 312 323 328 329 336 336 334 333 333 331 331 331 327 327 328 330 330 329 328 327 328 328 328 327 328 329 328 327 326 325 324 323 321 319 319 319 318 316
304 305 306 305 307 312 320 331 331 331 334 334 334 333 332 331 331 328 328 330 330 329 328 328 327 327 327 327 327 327 329 328 327 326 326 326 325 324 320 318 318 316 318
303 303 304 304 305 310 320 326 331 328 332 335 336 337 333 332 331 330 331 330 330 329 329 328 328 327 327 327 326 326 327 326 327 327 326 326 325 326 323 320 320 319 315
300 301 302 303 303 306 312 325 325 330 329 328 334 334 333 333 332 331 331 331 330 330 328 328 327 326 327 327 326 326 326 326 326 327 326 326 326 326 325 322 321 320 317
297 299 300 302 302 308 310 319 321 322 322 327 332 332 331 330 331 331 330 331 331 331 329 327 326 326 326 325 326 326 326 326 326 326 327 327 327 327 326 324 321 320 319
298 298 299 301 301 305 308 316 319 323 321 318 323 333 331 331 331 332 330 331 330 330 331 329 327 327 325 326 325 325 325 326 326 326 326 326 326 327 327 325 323 321 321
300 299 300 300 301 302 306 314 322 326 325 323 325 329 332 331 330 331 331 330 331 330 331 330 328 327 326 326 327 327 326 325 325 325 326 327 326 326 326 325 324 323 322
298 301 300 301 303 304 305 314 320 325 324 323 324 326 329 331 331 330 330 331 329 330 330 330 329 328 328 328 327 327 328 328 327 327 325 325 326 326 326 326 325 324 324
297 301 301 302 302 305 306 313 317 323 323 321 324 327 328 330 330 330 330 330 331 332 330 330 330 329 328 328 327 327 328 328 328 328 328 327 326 325 326 325 325 325 325
296 299 303 305 304 306 308 311 311 316 321 319 323 322 324 329 329 330 330 329 329 330 330 329 329 328 328 328 328 327 328 328 327 327 327 326 326 326 326 324 324 325 325
296 299 303 307 307 307 308 310 311 312 317 317 319 319 321 324 329 329 330 329 329 329 329 328 327 327 328 327 326 326 327 327 327 327 327 326 325 325 325 325 324 323 324
296 299 303 306 308 309 310 312 314 311 317 311 317 321 320 322 323 327 329 329 329 329 328 327 327 326 325 325 325 326 327 328 327 327 327 327 327 326 325 325 325 324 323
293 297 300 304 305 309 312 314 314 313 316 318 319 321 320 320 321 322 327 327 328 328 329 329 328 328 328 327 328 328 328 328 327 328 326 325 327 327 327 326 326 325 325
292 294 296 300 302 308 310 313 316 316 318 318 319 320 321 321 321 322 326 327 327 326 327 329 329 329 329 328 328 328 327 326 328 327 323 323 324 326 327 327 327 326 325
292 292 292 294 296 300 304 306 308 310 311 314 315 318 319 319 320 320 325 327 326 326 326 326 327 328 328 328 329 328 328 327 324 323 324 323 326 325 325 324 324 325 325
293 294 292 289 292 294 296 298 300 301 302 302 304 312 316 318 320 321 322 323 325 326 325 325 326 327 327 328 328 327 327 327 326 325 324 323 323 323 323 323 324 324 324
293 290 293 293 291 294 294 295 296 295 295 295 294 297 303 306 311 314 318 319 322 321 322 325 325 324 324 325 324 324 323 324 323 322 324 325 324 324 325 324 323 324 324
290 289 286 287 294 294 295 297 298 296 295 293 290 293 296 300 303 306 307 309 310 309 314 314 313 310 310 314 314 313 315 320 321 321 322 324 324 324 323 323 322 323 323
283 284 284 284 284 284 289 293 295 297 296 293 293 291 294 294 297 300 301 304 305 305 304 303 302 303 302 304 309 308 304 311 311 312 312 317 317 320 319 320 321 320 319
281 282 282 282 282 282 282 283 285 288 286 288 288 288 292 293 293 296 298 300 301 302 303 301 302 300 301 300 300 302 302 305 309 308 307 312 311 312 311 314 316 317 318
280 279 280 281 282 281 281 283 284 283 284 284 284 284 285 285 286 291 294 294 295 296 295 296 295 296 297 298 299 300 302 301 301 301 302 304 305 307 308 309 310 312 313
281 280 280 279 279 280 280 281 282 283 283 282 282 282 281 281 282 283 285 286 287 289 291 292 293 293 294 295 296 297 296 296 295 295 297 296 297 298 301 303 304 305 306
Wind_Speed
26 26 23 24 28 31 33 36 35 34 32 31 30 29 28 26 23 23 21 20 18 17 18 19 19 21 22 22 21 21 23 22 18 18 18 18 19 19 18 18 18 16 16
32 31 30 28 26 31 34 37 39 38 36 33 32 32 30 28 26 25 22 22 20 20 20 19 19 20 21 22 22 23 26 21 21 19 19 18 19 19 18 18 18 17 19
35 36 36 35 34 30 34 38 41 42 41 38 35 34 33 31 29 27 25 23 20 20 21 21 19 19 21 21 23 22 24 23 23 21 19 18 19 19 19 18 20 21 21
34 37 40 41 38 33 35 35 41 45 45 41 39 38 36 34 31 29 27 25 22 21 20 20 20 20 21 22 22 23 21 25 23 22 21 19 17 18 19 20 20 21 24
32 35 39 43 44 41 35 38 37 46 45 45 41 40 38 36 34 31 31 28 25 22 20 19 20 21 21 22 21 24 24 26 25 24 22 20 18 17 19 20 22 20 20
29 30 37 42 46 44 40 35 40 41 48 47 43 41 40 38 36 34 33 30 27 23 19 18 19 23 22 22 21 24 26 25 26 26 24 23 21 20 20 19 15 19 24
30 27 32 37 41 42 41 33 42 40 51 46 41 38 41 41 38 37 35 33 31 27 22 21 21 21 24 23 22 23 24 24 26 26 25 25 24 23 21 19 17 15 20
29 27 29 35 32 34 39 36 39 39 40 45 46 33 24 33 40 42 39 37 35 31 27 26 26 23 23 25 25 24 25 23 25 25 25 27 25 24 24 21 19 16 14
26 27 28 31 32 32 40 41 31 39 45 42 58 30 20 18 31 36 46 43 40 38 34 31 30 27 26 24 23 24 26 25 25 25 25 25 24 25 25 24 22 20 18
26 25 26 29 34 31 32 34 33 38 40 53 46 46 27 22 22 18 33 46 42 42 39 35 35 32 28 26 25 24 24 25 26 26 26 25 25 24 26 26 25 23 21
23 23 24 26 28 29 34 33 33 32 32 48 46 32 44 36 28 24 20 36 46 46 42 39 36 35 31 29 28 26 25 25 25 25 27 27 27 26 26 26 25 25 24
29 23 21 22 25 24 29 32 34 32 34 36 50 39 53 42 37 32 25 27 49 47 47 44 42 38 37 35 32 29 26 26 27 27 27 27 28 28 28 28 30 29 27
31 26 22 21 22 19 26 28 31 34 29 34 46 42 37 47 42 40 32 20 24 29 39 47 45 41 38 37 35 31 28 27 27 28 29 29 28 28 29 30 30 30 31
28 26 24 23 21 18 24 29 27 29 30 34 45 38 42 35 45 45 43 33 20 23 34 39 45 43 41 40 37 33 31 28 27 28 28 29 29 29 30 29 31 32 32
23 22 21 16 11 16 24 26 25 20 27 22 34 43 45 41 31 41 49 43 36 21 27 33 31 35 41 42 39 35 33 32 30 28 29 30 29 29 29 30 30 31 33
20 17 14 10 7 14 21 25 24 21 21 20 24 43 48 32 38 36 44 45 45 37 29 34 35 27 23 25 29 32 34 32 30 30 30 32 33 32 31 30 30 31 32
24 18 13 7 5 4 14 21 23 23 20 22 31 40 43 50 43 28 45 42 45 43 35 30 27 28 27 27 26 26 28 33 34 31 29 33 36 37 34 32 31 31 31
32 28 22 14 13 3 3 3 10 18 20 24 26 31 33 34 34 36 34 37 37 41 41 38 35 32 30 29 29 29 30 30 32 31 29 30 31 38 37 34 33 33 32
41 38 40 35 26 18 12 13 12 11 11 13 20 20 27 31 33 27 18 26 30 34 36 38 33 33 30 30 29 30 30 30 30 27 25 25 24 25 27 28 29 31 34
47 46 43 47 43 39 33 27 26 26 28 28 25 13 10 12 15 20 30 23 27 31 32 31 30 28 25 26 29 28 28 32 34 36 29 29 28 28 31 31 30 32 32
42 45 44 43 47 48 43 40 37 38 39 37 36 35 31 27 17 9 9 11 22 28 33 31 19 24 22 21 23 23 28 31 31 32 31 31 30 31 31 29 29 29 33
35 37 43 43 43 44 40 37 36 39 38 38 36 38 36 34 30 27 24 20 16 12 8 8 16 11 10 13 6 7 15 21 26 26 25 29 31 29 30 30 29 30 30
39 41 41 44 45 42 38 34 34 34 36 36 38 36 41 34 31 27 24 20 19 17 19 17 16 14 9 7 2 3 6 7 11 19 17 18 19 20 22 26 27 28 29
39 39 39 40 39 40 37 37 36 37 36 36 36 36 34 33 30 25 23 21 18 16 15 14 13 14 13 10 9 5 9 8 9 12 14 16 17 16 18 20 25 27 28
36 40 39 39 39 38 38 36 36 36 36 35 35 35 35 32 26 21 18 20 17 18 17 14 13 10 9 7 7 6 6 8 4 10 11 13 17 20 18 19 20 24 27
33 34 37 39 39 40 40 39 38 36 35 35 33 33 33 30 28 25 24 21 18 19 13 10 8 7 8 9 8 9 9 7 8 5 6 10 8 11 7 13 14 15 17
Wind_Direction
279 276 267 261 265 254 247 244 240 237 237 238 237 235 234 234 230 227 225 225 228 229 221 217 216 217 215 214 213 208 202 196 208 205 204 206 208 211 216 221 224 221 217
272 268 266 263 252 264 252 246 243 239 238 237 238 236 234 234 231 229 225 222 224 224 221 220 221 221 217 218 217 213 210 215 202 210 209 210 213 216 219 223 222 212 217
267 263 259 258 256 250 263 250 246 240 236 236 236 237 235 234 232 228 224 219 220 218 220 222 223 220 218 219 219 220 221 209 206 213 213 214 216 220 223 228 215 208 214
271 260 256 252 251 249 248 254 249 243 237 233 233 234 234 233 232 228 224 220 218 218 219 222 223 220 217 217 217 219 219 207 213 215 217 215 220 223 223 227 233 219 212
277 265 255 248 246 243 244 251 249 239 236 235 232 234 233 232 231 228 224 220 219 220 224 225 224 223 219 216 219 217 213 211 217 220 221 221 221 228 227 230 236 234 229
284 267 257 249 243 241 238 245 244 240 234 238 232 233 234 231 230 227 223 221 216 216 222 223 223 222 220 218 221 217 216 217 218 222 226 228 230 232 228 228 233 241 236
286 273 259 255 246 242 235 235 241 242 235 226 230 228 232 231 229 225 222 222 219 215 224 230 228 224 221 218 220 218 218 223 223 224 229 232 233 234 231 228 231 238 236
292 279 263 255 247 245 238 230 236 235 241 230 220 219 219 225 227 224 222 224 224 220 217 230 233 231 223 221 219 219 220 225 225 229 234 236 236 235 233 233 237 238 237
307 289 273 253 248 245 240 230 245 231 245 230 218 208 208 217 221 226 222 225 225 227 224 221 230 233 226 225 223 223 225 227 225 228 232 237 236 235 235 237 238 239 239
315 309 289 271 251 240 239 233 231 239 247 231 241 213 217 214 206 209 220 224 222 227 228 226 225 229 226 225 226 229 229 229 229 230 231 234 238 238 235 237 240 241 240
315 308 299 288 268 258 236 228 227 237 239 224 221 231 222 218 213 217 215 214 221 225 225 227 226 227 228 228 231 233 233 232 232 232 234 234 235 236 235 234 238 240 242
317 312 296 286 282 267 231 220 230 228 233 227 218 227 222 218 216 212 216 213 218 221 223 226 227 228 230 233 234 236 236 236 236 236 235 234 234 237 236 234 235 238 241
319 314 299 280 271 268 221 216 230 230 225 231 229 223 236 231 227 219 218 208 212 212 225 228 229 230 233 233 236 237 237 235 236 237 239 239 238 239 240 239 237 240 239
324 316 309 299 263 247 229 218 228 231 232 235 233 246 217 230 235 227 218 217 209 210 222 229 232 232 233 236 236 236 240 236 233 234 235 238 239 239 238 240 238 239 242
338 328 315 298 275 236 228 220 227 229 228 245 239 233 228 238 234 235 234 226 219 207 217 227 233 235 236 238 237 237 236 236 234 236 236 236 238 239 238 237 237 237 242
360 343 327 307 261 247 238 222 215 217 233 234 240 231 229 236 232 243 244 234 229 226 226 238 233 233 231 231 232 234 235 235 234 238 240 240 238 239 240 241 241 240 238
32 26 15 359 8 268 252 238 225 226 240 235 231 230 237 231 241 258 231 239 237 232 229 236 231 229 235 239 238 237 242 244 241 236 241 244 242 239 238 240 242 243 243
47 51 47 44 54 42 58 211 214 226 229 228 231 233 232 226 227 235 247 248 242 240 235 233 234 231 233 239 250 252 253 244 237 234 247 256 248 240 239 238 243 244 248
47 54 60 59 62 72 82 93 118 143 167 208 220 212 219 220 221 234 224 221 240 242 237 236 238 241 243 249 248 248 248 239 233 246 256 247 241 232 230 234 240 243 247
61 55 51 62 66 73 79 87 99 102 101 97 97 142 178 177 184 197 222 229 238 237 243 235 232 242 241 236 237 237 233 235 244 249 251 245 239 239 242 247 248 246 248
54 61 59 53 64 67 68 75 80 84 86 82 81 84 91 92 106 144 183 190 225 251 243 234 229 225 217 215 219 233 231 233 244 249 247 242 241 236 240 247 251 251 252
60 57 60 60 54 58 64 66 69 70 68 69 65 75 80 78 75 73 76 86 103 89 164 188 196 163 189 231 233 242 240 235 243 241 237 234 235 240 247 249 252 249 255
50 56 57 56 58 59 56 56 60 62 64 63 58 54 64 65 67 72 72 67 68 68 72 71 73 76 77 83 209 275 293 237 245 251 273 244 241 239 244 252 259 265 265
51 51 54 57 59 58 57 59 61 61 61 57 56 49 50 50 51 56 61 66 70 72 65 51 48 42 36 31 22 328 332 325 302 288 289 284 269 262 266 265 267 265 265
48 49 50 52 52 51 50 49 50 52 54 53 50 50 49 46 46 50 56 60 58 60 52 49 42 34 21 15 354 334 333 349 333 282 281 280 283 285 281 273 268 265 263
51 51 50 49 49 46 43 43 44 48 48 47 45 43 42 36 34 37 41 48 50 56 56 59 44 26 15 1 346 350 9 4 345 315 298 332 316 310 291 267 260 265 271